Regional Weather Roundup
Issued by NWS

Home | Current Version | Previous Version | Text Only | Print | Product List | Glossary Off
Versions: 1 2 3 4 5 6 7 8 9 10 11 12 13 14 15 16 17 18 19 20 21 22 23 24 25 26 27 28 29 30 31 32 33 34 35 36 37 38 39 40 41 42 43 44 45 46 47 48 49 50

839
ASUS43 KDMX 201306
RWRIA

WEATHER ROUNDUP FOR IOWA
NATIONAL WEATHER SERVICE DES MOINES IA
800 AM CDT THU JUL 20 2017

NOTE: "FAIR" INDICATES FEW OR NO CLOUDS BELOW 12,000 FEET WITH NO
SIGNIFICANT WEATHER AND/OR OBSTRUCTIONS TO VISIBILITY.

* - THESE STATIONS ARE NOT NWS STATIONS...THUS NOT UNDER NWS
QUALITY CONTROL.  THEY ALSO DO NOT REPORT WEATHER SUCH
AS PRECIPITATION OR FOG.

IAZ001>003-012>014-020>022-031>034-043>046-201400-
   NORTHWEST IOWA

CITY           SKY/WX    TMP DP  RH WIND       PRES   REMARKS
CARROLL *      SUNNY     81  73  78 W6        29.96S HX  85
CHEROKEE *     PTSUNNY   76  71  85 NE7       29.98R
DENISON *      MOSUNNY   81  73  78 MISG      29.98S HX  85
ORANGE CITY *  CLOUDY    75  70  83 NE7       29.99S
SHELDON *      PTSUNNY   72  68  88 NE6       29.99R
SIOUX CITY     CLOUDY    81  77  88 NW6       29.95S HX  88
SPENCER        CLOUDY    73  69  87 NE6       30.00R
STORM LAKE *   SUNNY     77  72  83 NE13      29.99R
$$

IAZ055>058-069>071-079>083-090>094-201400-
   SOUTHWEST IOWA

CITY           SKY/WX    TMP DP  RH WIND       PRES   REMARKS
ATLANTIC *     CLOUDY    79  72  78 CALM      29.98R HX  82
AUDUBON *      MOSUNNY   81  73  78 CALM      29.98S HX  85
CLARINDA *     SUNNY     79  73  83 S5        30.01S HX  82
COUNCIL BLFS * PTSUNNY   79  73  83 CALM      29.98R HX  82
CRESTON *      SUNNY     79  72  78 SW8       30.02S HX  82
HARLAN  *      PTSUNNY   77  73  88 S8G14     29.99F
LAMONI         SUNNY     78  73  84 SW8       30.02R HX  81
RED OAK *      CLOUDY    79  73  83 S9        29.97F HX  82
SHENANDOAH *   SUNNY     79  73  83 S5        29.99S HX  82
$$

IAZ047>049-059>061-072>074-084-201400-
   CENTRAL IOWA

CITY           SKY/WX    TMP DP  RH WIND       PRES   REMARKS
AMES           CLOUDY    79  74  84 NW5       29.96R HX  82
ANKENY *       CLOUDY    82  72  69 W6        29.96R HX  87
BOONE *        PTSUNNY   79  72  78 W5        29.96R HX  82
CHARITON *     MOSUNNY   81  72  74 SW10G17   29.98F HX  84
DES MOINES     MOSUNNY   83  71  67 W10       29.95R HX  87
GRINNELL*      CLOUDY    78  71  80 SW5       29.98R HX  80
KNOXVILLE *    MOSUNNY   81  72  74 SW12G20   29.95F HX  84
MARSHALLTOWN   CLOUDY    79  74  84 W6        29.96R HX  82
NEWTON *       CLOUDY    79  72  78 SW7       29.97R HX  82
PELLA *        SUNNY     81  70  71 SW9       29.96S HX  84
PERRY *          N/A     79  74  85 CALM      29.96S HX  83
$$

IAZ004>006-015-016-023>025-035-036-201400-
   NORTH CENTRAL IOWA

CITY           SKY/WX    TMP DP  RH WIND       PRES   REMARKS
ALGONA *       SUNNY     75  73  94 N9        29.99R
CLARION *      CLOUDY    77  73  88 E3        29.96F
ESTHERVILLE    CLOUDY    70  69  97 NE6       30.00R
FORT DODGE *   SUNNY     77  70  78 NE6       29.98S
MASON CITY     CLOUDY    74  73  97 NE5       29.98S FOG
FOREST CITY *  CLOUDY    72  72 100 CALM      29.99R FOG
WEBSTER CITY * CLOUDY    79  73  83 CALM      29.95S HX  82
IOWA FALLS *     N/A     76  74  93 CALM      29.99R FOG
$$

IAZ007>011-017>019-026>030-037>042-050>054-066-201400-
   NORTHEAST IOWA

CITY           SKY/WX    TMP DP  RH WIND       PRES   REMARKS
CEDAR RAPIDS   CLOUDY    77  77 100 E5        29.98S
CHARLES CITY * CLOUDY    73  73 100 E10       29.98R
CLINTON *      CLOUDY    72  70  93 SE7       30.03S
DECORAH *      CLOUDY    70  68  94 SE5G12    29.98S
DUBUQUE        CLOUDY    69  67  93 S9        30.00F
MONTICELLO *   CLOUDY    72  68  88 VRB6      29.99S
OELWEIN *      CLOUDY    72  70  94 SE9       29.99R
WATERLOO       PTSUNNY   77  73  87 SE10      29.95S
$$

IAZ064-065-067-068-078-201400-
   EAST CENTRAL IOWA

CITY           SKY/WX    TMP DP  RH WIND       PRES   REMARKS
DAVENPORT      PTSUNNY   74  71  91 E13       30.04S
IOWA CITY      CLOUDY    81  74  79 NE6       30.00R HX  86
MT. PLEASANT * MOSUNNY   81  71  72 S10       29.99R HX  84
MUSCATINE *    MOSUNNY   81  73  78 NE12G21   30.01R HX  85
QUAD CITIES    LGT RAIN  75  70  84 E9        30.03R
$$

IAZ062-063-075>077-085>089-095>099-201400-
   SOUTHEAST IOWA

CITY           SKY/WX    TMP DP  RH WIND       PRES   REMARKS
BURLINGTON     PTSUNNY   79  74  84 SW8       30.00R HX  82
FAIRFIELD *    SUNNY     81  72  74 SW12      29.97F HX  84
FORT MADISON * CLOUDY    81  73  78 SW9       30.01S HX  85
KEOKUK *       PTSUNNY   79  72  78 SW10      30.00S HX  82
OSKALOOSA *      N/A     81  71  71 SW14      29.96F HX  85
CENTERVILLE *    N/A     81  72  74 SW10      30.02S HX  84
OTTUMWA        SUNNY     84  71  65 SW12G20   29.97S HX  89
WASHINGTON *   MOSUNNY   81  73  78 SW9G16    29.98R HX  85
$$

ABBREVIATIONS USED IN REMARKS
   TC - TEMPERATURES IN CELSIUS
  WCI - WIND CHILL INDEX
   HX - HEAT INDEX
  VSB - VISIBILITY
$$





USA.gov is the U.S. government's official web portal to all federal, state and local government web resources and services.